Weather History for Gulf Shores, AL

Change the Weather History Date:

Tuesday, January 8, 2013

  Actual Average (KPNS) Record (KPNS)
Temperature  
Mean Temperature 56 °F 51 °F  
Max Temperature 64 °F 60 °F 79 °F (1890)
Min Temperature 48 °F 42 °F 21 °F (1970)
Degree Days  
Heating Degree Days 9 14  
Month to date heating degree days 112  
Since 1 July heating degree days 694  
Cooling Degree Days 0 0  
Month to date cooling degree days 0  
Year to date cooling degree days 0  
Growing Degree Days 6 (Base 50)    
Moisture  
Dew Point 49 °F    
Average Humidity 72    
Maximum Humidity 82    
Minimum Humidity 58    
Precipitation  
Precipitation 0.00 in 0.14 in 3.57 in (1964)
Month to date precipitation 1.08  
Year to date precipitation 1.08  
Snow  
Snow 0.00 in 0.00 in 0.00 in (2002)
Month to date snowfall 0.0  
Since 1 July snowfall 0.0  
Snow Depth -    
Sea Level Pressure  
Sea Level Pressure 30.20 in    
Wind  
Wind Speed 7 mph (ENE)    
Max Wind Speed 14 mph    
Max Gust Speed 18 mph    
Visibility 10 miles    
Events      
T = Trace of Precipitation, MM = Missing Value Source: NWS Daily Summary

Daily Weather History Graph

Daily Weather History Graph

Search for Another Location

Airport:

Trip Planner

Search our weather history database for the weather conditions in past years. The results will help you decide how hot, cold, wet, or windy it might be!

Date:

Astronomy

Jan. 08, 2013 Rise Set
Actual Time 6:48 AM CST 5:07 PM CST
Civil Twilight 6:22 AM CST 5:33 PM CST
Nautical Twilight 5:52 AM CST 6:02 PM CST
Astronomical Twilight 5:23 AM CST 6:31 PM CST
Moon 3:22 AM CST (1/8) 2:08 PM CST (1/8)
Length of Visible Light 11h 11m
Length of Day
10h 18m
Waning Crescent, 13% of the Moon is Illuminated
Jan 8
Waning Crescent
Jan 11
New
Jan 18
First Quarter
Jan 26
Full
Feb 3
Last Quarter

Hourly Weather History & Observations

Time (CST) Temp. Dew Point Humidity Pressure Visibility Wind Dir Wind Speed Gust Speed Precip Events Conditions
12:15 AM 51.8 °F 37.4 °F 58% 30.21 in 10.0 mi NE 4.6 mph - N/A   Clear
12:35 AM 50.0 °F 37.4 °F 62% 30.21 in 10.0 mi ENE 3.5 mph - N/A   Clear
12:55 AM 50.0 °F 37.4 °F 62% 30.20 in 10.0 mi NE 5.8 mph - N/A   Scattered Clouds
1:15 AM 50.0 °F 37.4 °F 62% 30.20 in 10.0 mi NE 3.5 mph - N/A   Scattered Clouds
1:35 AM 50.0 °F 37.4 °F 62% 30.20 in 10.0 mi Calm Calm - N/A   Scattered Clouds
1:55 AM 50.0 °F 37.4 °F 62% 30.20 in 10.0 mi Calm Calm - N/A   Scattered Clouds
2:15 AM 48.2 °F 39.2 °F 71% 30.20 in 10.0 mi NNE 3.5 mph - N/A   Clear
2:35 AM 48.2 °F 39.2 °F 71% 30.19 in 10.0 mi NE 4.6 mph - N/A   Scattered Clouds
2:55 AM 50.0 °F 41.0 °F 71% 30.19 in 10.0 mi NE 3.5 mph - N/A   Overcast
3:15 AM 50.0 °F 41.0 °F 71% 30.19 in 10.0 mi NE 4.6 mph - N/A   Overcast
3:35 AM 50.0 °F 41.0 °F 71% 30.18 in 10.0 mi ENE 4.6 mph - N/A   Overcast
3:55 AM 51.8 °F 42.8 °F 71% 30.18 in 10.0 mi NE 3.5 mph - N/A   Overcast
4:15 AM 51.8 °F 42.8 °F 71% 30.18 in 10.0 mi ENE 5.8 mph - N/A   Mostly Cloudy
4:35 AM 50.0 °F 42.8 °F 76% 30.18 in 10.0 mi ENE 6.9 mph - N/A   Scattered Clouds
4:55 AM 50.0 °F 42.8 °F 76% 30.18 in 10.0 mi ENE 6.9 mph - N/A   Mostly Cloudy
5:15 AM 51.8 °F 42.8 °F 71% 30.19 in 10.0 mi ENE 6.9 mph - N/A   Overcast
5:35 AM 51.8 °F 42.8 °F 71% 30.19 in 10.0 mi ENE 8.1 mph - N/A   Overcast
5:55 AM 51.8 °F 42.8 °F 71% 30.20 in 10.0 mi ENE 6.9 mph - N/A   Overcast
6:15 AM 51.8 °F 42.8 °F 71% 30.21 in 10.0 mi ENE 5.8 mph - N/A   Overcast
6:35 AM 51.8 °F 44.6 °F 76% 30.22 in 10.0 mi ENE 8.1 mph - N/A   Overcast
6:55 AM 51.8 °F 44.6 °F 76% 30.20 in 10.0 mi East 10.4 mph - N/A   Overcast
7:35 AM 51.8 °F 44.6 °F 76% 30.22 in 10.0 mi East 9.2 mph - N/A   Overcast
7:55 AM 53.6 °F 46.4 °F 77% 30.23 in 10.0 mi ENE 9.2 mph - N/A   Overcast
8:15 AM 53.6 °F 46.4 °F 77% 30.23 in 10.0 mi ENE 9.2 mph - N/A   Overcast
8:35 AM 55.4 °F 46.4 °F 72% 30.24 in 10.0 mi ENE 10.4 mph - N/A   Overcast
8:55 AM 57.2 °F 48.2 °F 72% 30.24 in 10.0 mi East 13.8 mph - N/A   Mostly Cloudy
9:15 AM 55.4 °F 46.4 °F 72% 30.25 in 10.0 mi ENE 10.4 mph 18.4 mph N/A   Overcast
9:35 AM 57.2 °F 48.2 °F 72% 30.27 in 10.0 mi ENE 9.2 mph - N/A   Overcast
9:55 AM 57.2 °F 48.2 °F 72% 30.26 in 10.0 mi East 10.4 mph - N/A   Overcast
10:15 AM 57.2 °F 48.2 °F 72% 30.26 in 10.0 mi ENE 10.4 mph - N/A   Overcast
10:35 AM 59.0 °F 50.0 °F 72% 30.25 in 10.0 mi ENE 12.7 mph - N/A   Overcast
10:55 AM 60.8 °F 51.8 °F 72% 30.24 in 10.0 mi East 12.7 mph - N/A   Overcast
11:15 AM 59.0 °F 51.8 °F 77% 30.24 in 10.0 mi ENE 12.7 mph - N/A   Overcast
11:35 AM 59.0 °F 51.8 °F 77% 30.23 in 10.0 mi ENE 12.7 mph 17.3 mph N/A   Overcast
11:55 AM 60.8 °F 51.8 °F 72% 30.22 in 10.0 mi East 12.7 mph 18.4 mph N/A   Overcast
12:15 PM 60.8 °F 51.8 °F 72% 30.21 in 10.0 mi ENE 11.5 mph - N/A   Overcast
12:35 PM 62.6 °F 51.8 °F 68% 30.20 in 10.0 mi East 10.4 mph 16.1 mph N/A   Overcast
12:55 PM 62.6 °F 51.8 °F 68% 30.19 in 10.0 mi ENE 10.4 mph - N/A   Overcast
1:15 PM 62.6 °F 53.6 °F 72% 30.18 in 10.0 mi East 10.4 mph - N/A   Scattered Clouds
1:55 PM 64.4 °F 53.6 °F 68% 30.18 in 10.0 mi ENE 9.2 mph - N/A   Overcast
2:15 PM 64.4 °F 53.6 °F 68% 30.18 in 10.0 mi ENE 5.8 mph - N/A   Mostly Cloudy
2:35 PM 64.4 °F 53.6 °F 68% 30.18 in 10.0 mi ENE 9.2 mph - N/A   Mostly Cloudy
2:55 PM 64.4 °F 53.6 °F 68% 30.17 in 10.0 mi NE 11.5 mph - N/A   Scattered Clouds
3:15 PM 64.4 °F 53.6 °F 68% 30.17 in 10.0 mi ENE 8.1 mph - N/A   Clear
3:35 PM 62.6 °F 53.6 °F 72% 30.18 in 10.0 mi ENE 9.2 mph - N/A   Mostly Cloudy
3:55 PM 62.6 °F 53.6 °F 72% 30.18 in 10.0 mi East 10.4 mph - N/A   Mostly Cloudy
4:15 PM 62.6 °F 53.6 °F 72% 30.17 in 10.0 mi East 8.1 mph - N/A   Scattered Clouds
4:35 PM 60.8 °F 53.6 °F 77% 30.17 in 10.0 mi ENE 8.1 mph - N/A   Scattered Clouds
4:55 PM 60.8 °F 53.6 °F 77% 30.16 in 10.0 mi ENE 9.2 mph - N/A   Scattered Clouds
5:15 PM 59.0 °F 53.6 °F 82% 30.17 in 10.0 mi ENE 8.1 mph - N/A   Scattered Clouds
5:35 PM 60.8 °F 53.6 °F 77% 30.18 in 10.0 mi ENE 8.1 mph - N/A   Mostly Cloudy
5:55 PM 60.8 °F 53.6 °F 77% 30.17 in 10.0 mi ENE 10.4 mph - N/A   Overcast
6:15 PM 60.8 °F 55.4 °F 82% 30.18 in 10.0 mi ENE 6.9 mph - N/A   Overcast
6:35 PM 60.8 °F 55.4 °F 82% 30.18 in 10.0 mi East 6.9 mph - N/A   Overcast
6:55 PM 60.8 °F 55.4 °F 82% 30.19 in 10.0 mi ENE 8.1 mph - N/A   Overcast
7:15 PM 60.8 °F 55.4 °F 82% 30.18 in 10.0 mi East 6.9 mph - N/A   Overcast
7:35 PM 60.8 °F 55.4 °F 82% 30.18 in 10.0 mi East 6.9 mph - N/A   Overcast
7:55 PM 60.8 °F 55.4 °F 82% 30.18 in 10.0 mi East 8.1 mph - N/A   Overcast
8:15 PM 62.6 °F 53.6 °F 72% 30.17 in 10.0 mi ENE 10.4 mph - N/A   Overcast
8:35 PM 62.6 °F 53.6 °F 72% 30.17 in 10.0 mi ENE 9.2 mph - N/A   Overcast
8:55 PM 62.6 °F 53.6 °F 72% 30.17 in 10.0 mi ENE 8.1 mph - N/A   Overcast
9:15 PM 62.6 °F 51.8 °F 68% 30.18 in 10.0 mi East 6.9 mph - N/A   Overcast
9:35 PM 62.6 °F 51.8 °F 68% 30.18 in 10.0 mi East 6.9 mph - N/A   Overcast
9:55 PM 62.6 °F 51.8 °F 68% 30.18 in 10.0 mi East 8.1 mph - N/A   Overcast
10:15 PM 60.8 °F 51.8 °F 72% 30.18 in 10.0 mi ENE 9.2 mph - N/A   Mostly Cloudy
10:35 PM 60.8 °F 51.8 °F 72% 30.18 in 10.0 mi ENE 9.2 mph - N/A   Scattered Clouds
11:15 PM 60.8 °F 53.6 °F 77% 30.20 in 10.0 mi ENE 5.8 mph - N/A   Overcast
11:55 PM 62.6 °F 53.6 °F 72% 30.19 in 10.0 mi ENE 9.2 mph - N/A   Overcast